Location: Chenango Forks
(42.2242°N, 75.8278°W)
Time: 03:06:50
(UTC-04:00)

Daily predictions for brighter satellites

Satellite Brightness Start Highest point End
(mag) Time Altitude Azimuth Time Altitude Azimuth Time Altitude Azimuth
ATLAS 2AS CENTAUR R/B 4.4 02:12:51 30° ENE 02:12:51 30° ENE 02:16:56 10° NE
CZ-2D R/B 4.1 03:07:00 10° NNE 03:09:27 24° NE 03:09:27 24° NE
SL-16 R/B 3.7 03:17:52 38° NNE 03:17:52 38° NNE 03:21:46 10° N
Lacrosse 5 rocket 4.3 03:25:43 17° ENE 03:25:43 17° ENE 03:26:47 10° NE
Cosmos 2333 Rocket 4.3 03:30:00 10° N 03:34:38 24° NE 03:39:12 10° ESE
CZ-4C R/B 3.0 03:32:32 10° NNW 03:40:28 69° ESE 03:47:29 10° SE
Lacrosse 5 4.3 03:41:13 14° ESE 03:41:13 14° ESE 03:43:27 10° E
Resurs 1-4 Rocket 3.3 03:39:36 10° NNE 03:42:57 39° NNE 03:42:57 39° NNE
ATLAS 2AS CENTAUR R/B 3.4 04:00:18 47° NW 04:00:25 47° NW 04:08:15 10° NNE
Cosmos 2237 Rocket 3.8 03:59:57 10° N 04:05:01 33° NE 04:10:03 10° ESE
Gbstr 26 Del rocket 4.4 04:08:37 48° NW 04:10:59 78° NNE 04:19:04 10° ESE
Cosmos 2239 Rocket 4.4 04:08:46 10° N 04:14:32 75° NW 04:14:32 75° NW
Cosmos 968 Rocket 3.9 04:16:28 57° NNE 04:16:28 57° NNE 04:20:34 10° NNE
Meteor 1-18 Rocket 4.2 04:16:35 80° N 04:16:35 80° N 04:22:07 10° N
Okean O Rocket 2.7 04:12:26 10° NNE 04:16:36 40° E 04:16:40 40° E
Cosmos 2219 3.4 04:18:02 58° NNW 04:18:02 58° NNW 04:22:46 10° NNE
ATLAS 5 CENTAUR R/B 3.5 04:13:15 10° NNW 04:18:51 41° NE 04:24:53 10° ESE
Tiangong 1 4.4 04:22:44 10° E 04:22:44 10° E 04:22:45 10° E
MOS 1-B 4.2 04:15:19 10° NNE 04:21:08 90° WSW 04:21:22 83° SSW
Cosmos 2344 3.6 04:26:23 51° SW 04:28:41 89° WNW 04:37:30 10° NE
NOSS 3-2 (A) 4.2 04:22:21 10° NNW 04:29:49 72° NE 04:37:52 10° SE
Cosmos 1461 4.2 04:31:20 35° N 04:31:20 35° N 04:34:08 10° NNE
USA 238 DEB 3.8 04:35:03 53° SW 04:35:03 53° SW 04:41:09 10° SSE
USA 238 3.7 04:34:55 55° SW 04:34:55 55° SW 04:41:15 10° SSE
BREEZE-M DEB (TANK) 3.9 04:36:06 46° SSE 04:36:24 47° SSE 04:39:21 10° ENE
Cosmos 1607 4.5 04:38:47 40° S 04:38:47 40° S 04:42:54 10° SSE
Cosmos 1743 3.9 04:33:24 10° N 04:37:04 42° E 04:39:18 20° SE
Cosmos 2227 Rocket 2.9 04:35:18 28° S 04:38:03 51° ESE 04:43:32 10° NNE
PSLV R/B 4.1 04:37:48 10° NNE 04:41:29 71° NNE 04:41:29 71° NNE
Okean 1-7 Rocket 3.6 04:41:51 75° SE 04:42:03 77° E 04:46:28 10° N
Cosmos 773 Rocket 3.8 04:39:28 10° NNW 04:44:44 82° WSW 04:49:54 10° SSE
ADEOS II 3.7 04:41:09 10° NNE 04:45:53 33° E 04:50:36 10° SSE
CZ-4B R/B 3.5 04:41:45 10° NNE 04:46:05 62° E 04:47:43 36° SSE
Cosmos 2219 Rocket 2.0 04:41:03 10° NNW 04:46:45 79° WSW 04:52:25 10° SSE
Cosmos 2297 Rocket 3.2 04:43:32 15° S 04:47:51 44° ESE 04:53:12 10° NE
Meteor 2-8 Rocket 4.3 04:48:13 31° SSW 04:51:25 82° W 04:57:35 10° N
CZ-2D R/B 3.1 04:47:11 10° N 04:50:47 29° NW 04:50:47 29° NW
Cosmos 1727 Rocket 3.9 04:51:31 18° S 04:56:24 89° W 05:02:45 10° N
CZ-4B DEB 4.3 04:52:01 10° NNE 04:57:31 78° ESE 05:01:52 17° S
Cosmos 1777 Rocket 4.0 04:57:51 52° WSW 04:58:51 63° WNW 05:04:05 10° NNE
SL-16 R/B 4.2 05:02:59 16° NW 05:02:59 16° NW 05:04:33 10° NW
ARIANE 5 R/B 4.2 04:58:00 10° NNW 05:00:27 19° NW 05:00:27 19° NW
Lacrosse 5 rocket 2.7 05:01:27 30° NW 05:01:49 30° NNW 05:05:49 10° NNE
PAYLOAD B 4.1 04:58:13 10° NNE 05:03:44 82° WNW 05:07:22 22° SSW
PSLV R/B 4.3 04:59:57 10° NNE 05:04:13 52° E 05:08:24 10° S
ISS -0.6 05:07:45 11° SSE 05:07:45 11° SSE 05:07:59 10° SSE
Cosmos 220 Rocket 4.1 05:04:15 29° S 05:06:16 69° ESE 05:10:28 10° NNE
NOSS 3-2 (C) 3.9 04:58:55 10° NW 05:06:27 88° SW 05:14:34 10° SSE
CENTAUR R/B 4.3 05:04:29 10° NNW 05:11:42 42° NE 05:19:24 10° ESE
Cosmos 2112 Rocket 3.9 05:10:01 10° NNW 05:15:21 89° WSW 05:20:37 10° SSE
Okean-O 3.3 05:11:45 10° NNE 05:16:08 56° E 05:20:28 10° S
Cosmos 2082 3.6 05:12:43 23° SSW 05:16:23 84° WNW 05:22:02 10° NNE
Cosmos 1459 Rocket 4.4 05:10:45 10° N 05:17:08 69° E 05:23:25 10° SSE
Cosmos 2333 Rocket 2.2 05:13:41 10° NNW 05:19:15 55° WSW 05:24:46 10° S
ADEOS Rocket 3.3 05:12:20 10° NNE 05:19:41 89° WNW 05:26:16 10° SSW
Cosmos 1680 Rocket 3.4 05:15:24 10° NNW 05:20:41 69° WSW 05:25:53 10° S
Meteor 1-19 Rocket 4.1 05:16:23 10° SSW 05:22:01 73° W 05:27:38 10° N
Cosmos 2228 4.4 05:18:02 10° N 05:22:14 42° ENE 05:26:23 10° SSE
Lacrosse 5 1.8 05:20:27 29° SW 05:23:07 87° SE 05:28:13 10° NE
Cosmos 1153 Rocket 4.5 05:17:42 10° NNW 05:23:57 63° W 05:30:14 10° S
EXPRESS MD2 4.4 05:22:10 21° NW 05:24:01 42° NNE 05:29:17 10° E
Resurs 1-4 Rocket 3.7 05:20:53 10° NNW 05:24:02 17° WNW 05:24:02 17° WNW
IRS-1C Rocket 4.5 05:20:09 10° N 05:25:09 44° WNW 05:27:44 25° SW
CZ-4C R/B 3.7 05:26:04 23° W 05:27:48 25° WSW 05:33:55 10° SSW
Cosmos 2058 Rocket 3.3 05:24:39 10° N 05:29:01 70° E 05:33:21 10° SSE
NOSS 3-4 (A) 3.6 05:26:20 23° SW 05:30:26 65° NW 05:36:59 10° NNE
NOSS 3-4 (C) 3.6 05:26:24 23° SW 05:30:33 66° NW 05:37:06 10° NNE
Cosmos 1605 Rocket 4.4 05:25:04 10° NNW 05:30:38 38° W 05:36:15 10° SSW
OTV 4 1.7 05:33:36 24° S 05:33:36 24° S 05:35:46 10° SE
Cosmos 2298 Rocket 4.5 05:30:54 10° S 05:36:07 64° ESE 05:41:23 10° NNE
BREEZE-M DEB (TANK) 4.0 05:24:47 10° WNW 05:41:23 76° NNE 05:45:31 10° ESE
Thor Agena Rocket 3.8 05:37:24 10° S 05:42:30 49° W 05:47:38 10° NNW
NOSS 0 Rocket 4.4 05:37:29 10° NW 05:43:03 35° WSW 05:48:36 10° SSW
CZ-4B R/B 3.6 05:38:22 10° N 05:43:21 40° WNW 05:47:54 12° SW
Meteor 1-23 Rocket 4.2 05:38:32 10° SSW 05:44:07 71° WNW 05:49:48 10° N
Aureole 2 Rocket 3.7 05:40:50 10° N 05:44:17 42° ENE 05:47:25 10° SE
COSMO-SKYMED 1 4.3 05:41:07 10° SE 05:45:06 37° ENE 05:49:05 10° N
Meteor 2-4 Rocket 3.8 05:39:37 10° SSW 05:45:21 64° WNW 05:51:15 10° N
Cosmos 2237 Rocket 2.6 05:43:57 10° NW 05:49:07 38° WSW 05:54:15 10° S
RESURS DK-1 2.5 05:46:43 16° SW 05:49:51 53° WNW 05:53:55 10° NNE
Cosmos 1666 2.9 05:46:17 10° NNW 05:50:02 48° W 05:53:44 10° SSW
Cosmos 292 Rocket 3.7 05:45:52 10° NNW 05:50:43 67° WSW 05:55:32 10° S
Cosmos 2150 Rocket 4.1 05:46:16 10° SSW 05:51:25 77° ESE 05:56:34 10° NNE
Okean O Rocket 3.0 05:49:31 10° NNW 05:52:41 20° WNW 05:54:08 17° W
Cosmos 2098 Rocket 3.0 05:50:07 10° N 05:53:46 79° E 05:58:22 10° S
Tiangong 1 1.0 05:54:38 21° WSW 05:56:29 76° SSE 05:59:32 10° E
Cosmos 2061 Rocket 4.0 05:51:04 10° NNW 05:57:16 62° W 06:03:30 10° S
Meteor 2-15 4.4 05:52:10 10° S 05:58:14 90° E 06:04:19 10° N
Cosmos 1025 Rocket 4.1 05:59:14 11° SW 06:02:34 25° WNW 06:06:12 10° NNW
ATLAS 5 CENTAUR R/B 2.8 05:57:58 10° NW 06:03:40 42° WSW 06:09:42 10° S
Cosmos 1802 Rocket 4.0 05:58:24 10° NNW 06:04:28 60° W 06:10:29 10° S
BREEZE M DEB (TANK) 4.0 06:01:28 13° WNW 06:04:35 45° N 06:15:08 10° ENE
DELTA 2 R/B (1) 4.3 05:59:55 10° SW 06:05:09 47° SSE 06:10:29 10° E
Cosmos 2100 Rocket 4.2 06:00:54 10° NNW 06:06:47 46° W 06:12:43 10° SSW
Cosmos 1346 Rocket 3.5 06:03:19 10° SW 06:06:53 32° WNW 06:10:30 10° N
Cosmos 1626 Rocket 3.8 06:02:39 10° S 06:07:02 76° E 06:11:24 10° N
CZ-4B R/B 3.7 06:03:14 10° N 06:07:15 73° WNW 06:11:03 10° SSW
Ariane Rocket 3.9 06:02:19 10° NNE 06:07:20 54° E 06:12:19 10° S
SL-16 R/B 2.2 06:01:44 10° NNW 06:07:22 63° WSW 06:12:56 10° S
USA 129 2.6 06:10:29 10° SSW 06:12:14 25° W 06:13:56 10° NW
Cosmos 724 4.4 06:07:21 10° NW 06:13:30 65° WSW 06:19:38 10° SSE
Meteor 2-15 Rocket 4.4 06:10:47 10° SSW 06:16:51 77° W 06:22:56 10° N
Intercosmos 25 Rocket 4.3 06:13:56 10° N 06:17:15 53° E 06:21:48 10° SSE
SeaSat 1 3.2 06:14:20 10° SE 06:19:09 58° ENE 06:24:00 10° NNW
Delta 2 Rocket 4.3 06:17:34 10° WSW 06:20:41 26° S 06:23:38 10° SE
Cosmos 1725 Rocket 4.0 06:14:43 10° N 06:21:03 80° W 06:27:18 10° S
Cosmos 2227 Rocket 3.3 06:17:43 10° WSW 06:22:23 26° NW 06:27:05 10° N
ADEOS II 2.8 06:20:55 10° N 06:25:33 32° WNW 06:30:09 10° SW
Cosmos 1898 Rocket 3.8 06:23:18 10° SW 06:28:26 48° WNW 06:33:34 10° N
Cosmos 1602 Rocket 3.6 06:24:53 10° SSW 06:29:17 61° W 06:33:41 10° N
Cosmos 2297 Rocket 3.1 06:27:12 10° WSW 06:32:03 29° NW 06:36:57 10° N
